This demonstration page uses our WeatherBlox Daily Observations layout. Learn more.

Left ArrowRight Arrow

39.92423, -83.80882

Hourly Observations for January 4, 2017

Temp ( °F °C ) Dew Point ( °F °C ) Humidity (%) Winds ( mph kmh ) Pressure ( in mb ) Visibility ( mi km ) Precip ( " mm )
12:56 am 00:56 Cloudy with Light Rain 39 3.9 37 2.8 93 93 WNW 17 28 29.75 1008 5 8.0467 0.01 0.254
1:56 am 01:56 Cloudy with Light Rain 37 2.8 35 1.7 93 93 WNW 16 26 29.78 1008 10 16.0934 0.01 0.254
2:09 am 02:09 Cloudy with Light Rain 37 3 36 2 93 93 WNW 17 28 29.8 1009 10 16.0934 0.001 0.001
2:37 am 02:37 Cloudy 37 3 36 2 93 93 W 13 20 29.8 1009 10 16.0934 0.001 0.001
2:56 am 02:56 Cloudy 37 2.8 35 1.7 93 93 WNW 15 24 29.8 1009 9 14.48406 0.001 0.001
3:04 am 03:04 Cloudy with Light Rain 37 3 36 2 93 93 WNW 17 28 29.8 1009 8 12.87472 0.001 0.001
3:38 am 03:38 Cloudy with Light Rain 36 2 34 1 93 93 WNW 20 31 29.83 1010 5 8.0467 0.001 0.001
3:56 am 03:56 Cloudy with Light Rain 35 1.7 33 0.6 93 93 WNW 20 31 29.82 1010 9 14.48406 0.001 0.001
4:30 am 04:30 Cloudy 34 1 30 -1 87 87 W 23 37 29.83 1010 10 16.0934 0.001 0.001
4:40 am 04:40 Cloudy 34 1 30 -1 87 87 W 17 28 29.83 1010 10 16.0934 0.001 0.001
4:56 am 04:56 Cloudy 33 0.6 29 -1.7 85 85 W 22 35 29.83 1010 10 16.0934 0.001 0.001
5:24 am 05:24 Cloudy 32 0 27 -3 80 80 WNW 24 39 29.88 1012 10 16.0934 0 0
5:56 am 05:56 Partly Cloudy 30 -1.1 26 -3.3 85 85 WNW 23 37 29.85 1011 10 16.0934 0 0
6:56 am 06:56 Mostly Clear 27 -2.8 22 -5.6 81 81 W 21 33 29.9 1012 10 16.0934 0 0
7:56 am 07:56 Mostly Clear 25 -3.9 20 -6.7 81 81 W 17 28 29.92 1013 10 16.0934 0 0
8:56 am 08:56 Sunny 25 -3.9 19 -7.2 78 78 W 16 26 29.94 1014 10 16.0934 0 0
9:56 am 09:56 Mostly Sunny 24 -4.4 17 -8.3 75 75 WNW 20 31 29.96 1015 10 16.0934 0 0
10:56 am 10:56 Sunny 25 -3.9 17 -8.3 72 72 W 15 24 29.98 1015 10 16.0934 0 0
11:56 am 11:56 Mostly Sunny 26 -3.3 17 -8.3 69 69 W 16 26 29.98 1015 10 16.0934 0 0
12:56 pm 12:56 Partly Cloudy 26 -3.3 18 -7.8 71 71 W 20 31 29.97 1015 10 16.0934 0 0
1:56 pm 13:56 Partly Cloudy 27 -2.8 16 -8.9 63 63 W 22 35 29.97 1015 10 16.0934 0 0
2:56 pm 14:56 Sunny 25 -3.9 15 -9.4 66 66 W 24 39 29.98 1015 10 16.0934 0 0
3:56 pm 15:56 Mostly Sunny 25 -3.9 14 -10 63 63 W 20 31 29.99 1016 10 16.0934 0 0
4:56 pm 16:56 Sunny 24 -4.4 14 -10 65 65 W 21 33 30 1016 10 16.0934 0 0
5:56 pm 17:56 Clear 22 -5.6 13 -10.6 68 68 W 18 30 30.01 1016 10 16.0934 0 0
6:56 pm 18:56 Clear 21 -6.1 13 -10.6 71 71 W 14 22 30.03 1017 10 16.0934 0 0
7:56 pm 19:56 Clear 20 -6.7 13 -10.6 74 74 W 15 24 30.05 1018 10 16.0934 0 0
8:56 pm 20:56 Clear 19 -7.2 13 -10.6 77 77 W 14 22 30.04 1017 10 16.0934 0 0
9:56 pm 21:56 Mostly Clear 19 -7.2 12 -11.1 74 74 W 15 24 30.04 1017 10 16.0934 0 0
10:56 pm 22:56 Clear 18 -7.8 12 -11.1 77 77 WNW 17 28 30.04 1017 10 16.0934 0 0
11:24 pm 23:24 Mostly Cloudy 18 -8 12 -11 79 79 W 13 20 30.09 1019 10 16.0934 0 0
11:56 pm 23:56 Mostly Cloudy 17 -8.3 11 -11.7 77 77 WNW 12 19 30.06 1018 10 16.0934 0 0

Powered by AerisWeather